Simultaneous Nadir Overpasses (SNOs) Predictions

Prediction of SNOs between GOES-16 and NPP Satellite Orbit:

Table of predicted SNOs for the next 14.0 days since TLE Epoch: 5/18/2024
Index Date Time (GOES-16) GOES-16 Lat,Lon NPP Lat,Lon Distance(km) Time Diff (sec)
1 05/18/2024 06:17:45 -0.02, -75.20 -0.39, -73.57 186.26 80
2 05/19/2024 18:42:19 0.01, -75.21 -0.80, -78.87 416.91 80
3 05/20/2024 18:20:54 0.02, -75.21 0.24, -74.34 100.70 80
4 05/22/2024 06:45:19 -0.01, -75.23 0.96, -79.59 497.19 80
5 05/23/2024 06:23:53 -0.02, -75.24 -0.03, -75.05 20.62 80
6 05/25/2024 18:29:42 0.01, -75.25 -0.09, -75.82 64.70 80
7 05/26/2024 18:08:15 0.02, -75.26 0.91, -71.28 453.29 80
8 05/28/2024 06:32:40 -0.01, -75.28 0.27, -76.54 144.01 80
9 05/29/2024 06:11:14 -0.01, -75.29 -0.74, -72.00 374.28 80
10 05/30/2024 18:35:47 0.01, -75.31 -0.46, -77.30 227.33 80
11 05/31/2024 18:14:21 0.01, -75.32 0.55, -72.76 291.59 80
